Flag for U.S.A. Weather past 2 weeks in Cupertino, California, U.S.A.

Now
66 °F

Sunny.


Feels Like: 66 °F
Forecast: 53 / 73 °F
Wind: 16 mph from North

Location: Moffett Field

Current Time: May 26, 2015 at 6:50:51 PM

Latest Report: May 26, 2015 at 5:56 PM


Visibility: 10 mi

Pressure: 29.97 "Hg

Humidity: 61%

Dew point: 52 °F

Location of CupertinoLocation

Historic Weather in Cupertino — Graph

°F

Cupertino temperature yesterday

Maximum temperature yesterday: 66 °F (at 11:56 AM)
Minimum temperature yesterday: 55 °F (at 9:56 PM)
Average temperature yesterday: 60 °F

Past Weeks' High & Low Weather Summary

 TemperatureHumidityPressure
High68 °F (May 26, 2:56 PM)93% (May 15, 5:56 AM)30.14 "Hg (May 15, 5:56 AM)
Low48 °F (May 12, 4:56 AM)35% (May 12, 4:56 PM)29.81 "Hg (May 14, 3:56 PM)
Average58 °F68%30.00 "Hg
* Reported May 11 4:56 PM — May 26 4:56 PM, Cupertino, Weather by CustomWeather, © 2015

Note: Actual official high and low records may vary slightly from our data, if they occured in-between our weather recording intervals... More about our weather records

Advertising

Cupertino weather history for previous 24 hours

 ConditionsComfort  
Time TempWeatherWind HumidityBarometerVisibility
4:56 PM
Tue, May 26
66 °FSunny.20 mph63%29.97 "Hg10 mi
3:56 PM67 °FSunny.20 mph61%29.98 "Hg10 mi
2:56 PM68 °FSunny.18 mph59%29.99 "Hg10 mi
1:56 PM67 °FSunny.15 mph61%30.00 "Hg10 mi
12:56 PM64 °FSunny.12 mph65%30.02 "Hg10 mi
11:56 AM65 °FSunny.10 mph59%30.02 "Hg10 mi
10:56 AM64 °FScattered clouds.No wind61%30.03 "Hg10 mi
9:56 AM60 °FOvercast.No wind67%30.03 "Hg10 mi
8:56 AM58 °FOvercast.No wind70%30.03 "Hg10 mi
7:56 AM57 °FOvercast.No wind72%30.02 "Hg10 mi
6:56 AM57 °FOvercast.No wind74%30.01 "Hg10 mi
5:56 AM56 °FOvercast.No wind75%29.99 "Hg10 mi
4:56 AM56 °FOvercast.5 mph75%29.99 "Hg10 mi
3:56 AM57 °FOvercast.3 mph74%29.99 "Hg10 mi
2:56 AM57 °FOvercast.5 mph74%29.99 "Hg10 mi
1:56 AM57 °FOvercast.5 mph74%30.00 "Hg10 mi
12:56 AM57 °FOvercast.5 mph78%30.01 "Hg10 mi
11:56 PM
Mon, May 25
58 °FOvercast.No wind75%30.01 "Hg10 mi
10:56 PM57 °FOvercast.No wind78%30.00 "Hg10 mi
9:56 PM55 °FClear.5 mph83%30.00 "Hg10 mi
8:56 PM57 °FSunny.7 mph78%29.98 "Hg10 mi
7:56 PM59 °FSunny.14 mph78%29.96 "Hg10 mi
6:56 PM61 °FSunny.17 mph72%29.95 "Hg10 mi
Weather by CustomWeather, © 2015

See weather overviewHow to use our weather pages